Theta_e
287 287 286 286 285 286 286 286 287 287 287 287 286 286 286 287 286 287 287 286 286 286 286 286 286 286 286 286 285 284 284 284 284 283 283 283 283 283 282 282 282 282 282 281 281 281 282 281 281 281 281 281 281 281 281 281 281 281 281 281 281 280 280 280 280 278 278 279 280 279 278 278 278 278 278 278 278 279 278 279 279 279 279 279 280
287 287 287 286 285 286 286 286 286 286 286 286 286 286 286 286 286 286 285 286 286 286 286 286 286 286 285 285 285 285 284 284 283 283 283 282 282 282 282 281 281 282 281 280 280 281 281 281 280 280 281 281 281 280 280 280 280 280 280 280 280 279 280 280 280 279 277 276 276 278 277 278 276 278 276 277 277 278 278 278 279 279 279 279 280
287 287 286 287 286 286 285 285 285 285 286 286 286 286 287 286 286 286 286 286 286 286 286 286 286 285 285 285 285 284 284 283 283 283 283 282 282 282 282 281 281 281 280 280 280 280 280 280 280 280 280 280 280 280 280 279 280 279 279 280 279 279 279 280 280 278 278 276 277 275 276 276 276 276 277 277 277 277 277 278 278 279 279 280 280
287 287 287 286 286 285 285 285 285 285 285 286 286 286 286 286 286 285 286 286 285 285 285 286 285 285 285 285 285 284 284 283 283 283 283 282 282 282 281 281 281 281 280 280 280 280 280 280 280 279 279 279 279 279 279 279 279 279 279 279 279 279 279 279 279 279 278 276 275 275 276 275 276 276 276 277 277 277 277 278 278 278 279 280 280
287 287 287 286 287 287 286 286 285 285 285 285 285 286 286 286 286 285 285 285 285 285 285 285 285 285 284 285 284 284 284 283 283 283 283 283 283 282 281 281 281 281 281 281 281 280 280 280 280 279 278 278 278 278 278 277 278 278 278 278 278 278 277 278 277 277 276 276 274 274 275 275 275 276 276 275 276 277 277 277 278 278 279 280 280
286 286 286 286 286 286 286 286 286 286 286 286 286 286 286 286 286 286 285 285 285 285 284 284 285 285 285 285 285 284 284 284 283 283 282 283 283 282 282 281 281 281 281 281 281 280 280 280 280 279 278 278 277 277 277 277 277 277 277 277 277 277 276 276 276 275 275 275 274 273 274 274 274 275 276 276 275 276 277 278 278 278 278 278 279
285 285 285 286 286 286 286 286 286 286 286 286 286 286 286 286 286 286 286 285 285 284 284 284 285 285 285 285 285 284 284 284 283 283 283 282 282 282 282 281 281 281 281 281 280 280 280 280 280 279 278 278 278 277 277 276 276 276 276 276 276 275 275 275 275 274 274 273 273 273 273 274 275 274 276 277 276 276 275 276 276 278 278 278 277
285 285 285 285 285 285 285 286 285 285 286 286 286 286 286 286 286 286 286 285 285 284 284 284 284 284 285 285 285 285 284 284 284 283 283 282 282 282 282 281 281 281 281 281 280 280 280 280 280 279 279 279 279 278 277 276 276 275 276 275 275 274 274 273 273 273 273 272 272 272 273 273 274 275 276 276 275 275 276 276 275 276 276 278 278
284 284 284 284 285 285 285 285 285 285 285 285 285 285 285 286 286 286 286 286 286 285 285 285 284 284 284 284 284 284 284 284 284 283 283 282 282 282 282 281 281 280 280 280 280 280 280 280 280 279 279 280 280 279 278 278 275 274 274 274 273 273 273 272 272 272 272 272 272 273 273 273 274 274 274 274 274 275 277 277 275 275 276 276 277
284 283 284 284 285 285 285 284 285 285 285 285 285 285 285 285 285 285 285 285 285 285 285 284 284 284 283 283 283 283 283 284 284 285 285 283 282 282 282 281 281 280 280 279 279 279 279 279 279 280 280 280 280 280 280 280 279 276 274 273 273 272 271 271 271 271 271 271 271 272 271 272 273 274 275 276 277 277 276 275 274 275 276 275 276
283 283 283 284 285 285 284 284 284 284 284 284 285 284 284 284 284 284 284 284 284 284 284 284 284 284 284 283 283 283 283 284 285 287 287 286 283 282 281 281 281 280 280 279 279 278 278 278 278 279 279 280 280 281 281 281 280 279 278 277 276 273 271 270 271 271 271 271 272 272 272 272 274 275 276 276 277 276 275 276 275 275 274 273 273
283 283 284 284 284 284 284 284 284 284 284 284 284 284 283 283 283 283 283 283 283 283 283 283 284 283 283 283 283 283 283 285 286 287 287 287 286 282 282 281 280 280 280 279 279 278 277 277 277 277 278 278 279 279 280 281 280 279 278 278 278 278 277 273 271 271 271 271 271 272 273 273 274 275 276 276 275 275 276 276 275 274 273 274 274
282 282 283 283 284 284 284 283 283 283 284 284 283 283 282 282 282 282 282 283 283 283 283 283 283 283 283 283 283 283 283 285 286 287 287 287 287 284 282 281 280 280 280 279 279 278 277 276 276 276 277 279 278 278 279 279 280 280 279 279 279 279 278 278 278 274 274 273 272 272 274 275 275 275 277 276 277 275 275 274 275 275 275 274 274
281 281 282 282 283 283 283 283 283 283 283 283 283 282 282 282 282 282 282 282 282 282 282 282 282 282 283 282 283 283 283 285 286 287 287 287 287 286 282 281 280 280 279 279 278 278 277 276 275 275 276 277 277 277 278 278 278 278 277 277 277 277 279 279 278 278 277 275 274 273 276 277 276 277 278 278 276 275 274 274 275 275 274 273 274
280 280 281 281 281 281 282 283 283 283 282 282 282 281 282 282 282 282 282 282 282 282 282 282 282 282 282 282 282 282 283 285 286 286 287 287 288 287 283 281 280 280 279 279 278 277 277 276 275 275 275 276 277 277 277 277 277 276 276 276 276 276 277 277 277 277 276 276 276 276 277 278 278 277 277 277 277 277 277 276 275 273 273 273 272
279 279 279 280 280 280 281 282 283 282 282 281 281 281 281 282 282 282 281 281 281 281 281 281 281 281 281 281 281 281 282 285 285 286 287 287 288 286 283 281 280 279 279 278 278 277 277 275 275 275 275 276 278 280 279 277 276 275 275 275 275 276 277 279 280 279 278 278 278 278 278 278 279 277 278 278 278 278 274 273 272 269 268 268 268
277 278 278 278 278 279 280 282 281 281 280 280 280 280 280 281 281 282 280 280 280 280 280 280 280 280 280 280 280 280 281 283 285 286 286 287 287 285 283 281 280 278 278 278 277 276 276 275 275 275 275 275 278 281 281 279 275 275 274 274 275 275 276 278 281 282 281 281 281 281 280 280 280 280 280 281 280 275 272 271 271 269 267 266 267
276 276 276 277 277 277 279 281 280 279 278 278 278 279 279 280 281 281 280 279 279 279 279 279 279 279 279 279 280 280 280 282 284 285 286 287 286 284 283 281 279 278 277 277 277 275 275 277 276 275 275 275 279 281 282 279 275 274 274 274 274 273 275 276 277 279 282 281 281 281 280 280 281 281 281 280 280 277 271 269 269 268 267 266 265
275 274 275 275 275 276 278 279 278 277 276 276 276 276 277 279 280 280 279 279 279 279 278 278 278 278 278 279 281 280 280 281 283 284 285 286 286 284 283 280 278 277 276 275 275 275 275 276 277 276 276 276 280 282 282 279 275 275 274 274 272 272 273 275 275 275 276 277 277 278 278 280 276 274 275 276 275 274 272 270 269 268 266 266 266
274 274 273 273 273 275 277 276 275 274 273 273 274 275 277 278 279 279 279 279 278 278 278 278 277 277 278 278 278 279 279 279 281 284 285 286 287 284 282 280 278 276 275 274 273 274 274 274 277 279 279 279 280 282 282 281 276 275 275 274 273 272 274 274 275 275 275 276 276 276 274 273 273 272 271 271 271 271 271 270 270 268 266 266 265
272 272 272 271 272 273 273 272 271 271 271 272 273 274 276 277 278 278 278 279 278 277 276 276 276 276 277 277 277 278 278 278 279 282 284 285 286 286 281 279 278 277 275 274 273 273 273 273 275 278 280 280 281 283 283 282 278 276 275 274 274 275 276 273 275 276 274 274 274 273 272 271 270 271 271 270 270 270 270 271 270 270 268 266 265
271 270 270 271 271 270 269 269 269 269 270 271 271 272 274 275 276 277 278 277 277 276 276 275 275 275 275 275 275 276 278 279 278 281 283 285 286 287 282 279 279 276 275 274 273 273 273 274 274 277 280 280 281 283 283 282 280 275 275 277 278 278 275 274 274 275 273 273 272 270 269 268 268 267 267 268 268 268 269 269 270 270 270 270 268
269 269 269 268 268 267 267 267 267 268 268 269 270 270 271 272 274 276 276 276 276 275 275 276 275 274 274 274 274 274 275 276 280 279 281 283 285 286 285 281 281 277 275 273 273 273 274 274 275 278 280 281 282 283 284 283 279 275 278 279 279 279 277 273 273 273 271 271 270 269 268 268 267 266 266 266 267 268 268 269 269 270 270 270 270
267 266 266 266 265 265 265 266 266 267 267 268 268 269 269 271 273 275 276 276 275 275 276 275 275 274 274 275 274 274 274 275 277 280 279 282 284 286 286 283 282 278 276 275 275 274 274 274 275 278 281 281 282 283 284 283 278 278 279 280 280 279 274 272 271 270 269 268 268 269 268 267 267 266 266 266 267 268 269 269 269 269 269 269 269
265 264 264 264 264 264 264 264 265 265 266 266 266 268 269 270 272 274 275 275 275 275 275 275 274 274 274 274 274 274 274 274 274 277 280 281 282 285 286 284 283 281 276 275 276 275 276 277 278 279 281 281 282 283 283 283 280 280 280 280 279 276 272 271 270 269 268 268 268 268 268 266 267 267 267 268 268 269 268 268 268 267 267 267 267
263 263 263 263 263 263 263 263 263 264 265 266 266 267 268 270 271 273 275 275 275 274 274 275 275 274 274 274 274 274 274 273 273 275 277 279 280 282 285 285 283 282 279 276 277 278 278 278 279 280 281 281 280 280 280 281 281 280 280 280 277 271 271 270 269 268 268 268 268 267 266 266 266 267 267 268 267 266 266 264 264 264 264 264 264
262 262 262 262 262 262 261 262 262 263 264 265 266 268 269 270 272 273 274 274 275 274 274 274 275 274 274 274 274 274 273 273 273 274 275 276 278 280 282 284 283 282 279 277 277 276 277 277 277 279 280 281 281 281 280 281 280 280 278 277 271 270 270 269 269 269 268 267 267 266 265 265 266 266 265 265 264 264 265 263 263 263 263 264 263
261 260 261 261 261 261 260 262 262 262 263 264 264 266 268 269 270 271 273 274 274 274 274 274 274 274 274 274 274 274 273 273 273 273 274 275 276 278 280 282 281 280 278 276 276 276 276 278 278 278 279 279 279 278 278 278 276 272 270 269 269 268 269 272 271 270 269 267 266 265 264 264 263 263 263 263 263 263 264 263 263 262 263 263 262
260 259 259 260 259 260 260 260 261 261 262 263 265 266 267 268 270 271 273 275 275 275 275 275 275 275 275 275 274 273 273 273 273 276 275 277 276 277 278 280 280 279 278 278 275 275 275 275 275 275 276 276 274 273 271 269 268 268 267 266 267 267 267 268 267 266 265 264 263 263 262 261 260 262 261 261 261 262 263 262 262 262 262 263 262
258 258 258 258 258 259 259 260 260 261 261 262 263 264 268 272 272 271 271 275 278 279 280 277 277 277 276 276 277 275 275 275 277 278 278 279 279 280 280 282 282 280 279 280 276 274 274 273 274 274 274 272 271 270 270 268 265 265 265 267 266 266 266 266 265 264 263 263 263 262 261 261 260 260 260 260 260 261 262 263 262 263 262 262 261
257 257 258 258 258 259 259 259 259 260 261 262 263 264 265 269 274 276 276 277 277 279 280 281 282 282 279 277 278 280 280 280 279 279 279 280 280 281 281 283 283 282 281 277 274 273 273 272 272 273 272 271 270 269 268 267 265 264 264 265 265 266 265 264 264 262 262 262 261 261 260 260 260 261 260 260 260 261 261 262 262 262 261 261 261
256 257 257 257 258 258 259 259 259 260 261 262 264 265 265 264 264 269 273 274 277 279 279 281 282 282 283 282 280 277 279 281 280 279 280 280 280 281 281 282 283 282 281 280 273 273 273 272 272 272 271 270 269 269 268 267 265 265 264 263 263 264 264 262 263 262 262 261 260 260 260 260 260 260 260 260 260 260 261 261 261 261 261 261 261
256 256 257 257 258 258 259 259 259 260 261 263 263 262 262 262 261 262 265 270 272 275 278 280 281 282 283 283 283 282 279 279 281 280 280 280 281 281 282 282 283 282 282 276 273 273 273 272 272 271 270 270 270 269 268 267 266 265 264 264 263 262 262 262 263 261 261 260 260 260 260 260 260 260 260 260 260 259 261 260 261 261 261 260 261
257 257 257 257 258 258 259 259 260 260 261 260 260 260 260 261 261 262 262 265 269 274 278 279 280 281 282 283 283 283 283 281 280 280 280 280 281 281 281 281 283 283 280 275 273 272 272 272 271 271 270 270 270 268 267 266 265 264 263 264 263 261 261 262 261 260 260 261 260 260 260 259 260 259 259 259 260 260 260 260 260 260 260 260 261
257 258 259 259 258 258 259 259 259 259 259 259 259 259 260 261 262 262 263 265 268 270 273 275 278 280 279 280 282 283 283 283 281 281 281 280 281 281 282 279 279 279 278 275 274 273 272 271 270 270 270 269 268 267 266 266 264 264 263 263 261 261 261 261 260 260 260 260 260 259 259 259 259 259 259 259 259 259 259 259 260 260 260 260 261
257 257 257 258 258 258 258 258 258 258 258 259 259 260 261 262 262 263 265 266 268 271 273 275 275 278 280 281 282 282 282 283 282 281 280 281 281 281 277 276 277 277 276 274 273 272 272 271 270 270 270 269 268 267 266 265 264 264 263 262 260 260 260 260 259 259 259 259 258 259 259 258 258 258 259 259 259 258 259 259 259 260 261 261 262
257 257 257 257 257 258 258 258 258 259 260 260 260 260 260 261 262 262 264 265 268 271 272 274 274 274 277 277 279 281 282 282 282 281 281 281 281 279 277 277 277 277 275 273 272 271 270 270 270 269 269 267 266 265 265 263 263 262 262 261 260 260 259 259 258 258 258 257 258 258 258 258 258 258 258 257 258 259 259 259 260 260 261 262 263
256 256 257 257 257 257 257 258 258 259 259 259 260 260 260 261 262 264 265 266 268 269 271 272 274 273 273 274 277 277 278 281 281 281 280 280 278 278 277 277 277 276 275 272 271 270 270 270 269 268 267 266 265 264 263 261 261 261 260 259 259 258 261 260 260 258 257 257 257 258 258 258 257 257 258 257 258 259 259 260 260 260 261 262 263
256 257 258 259 260 258 258 259 259 259 260 261 261 261 262 262 262 262 263 263 264 265 269 271 272 272 273 274 274 276 277 276 276 276 276 276 277 277 277 277 276 276 273 271 270 269 269 267 266 266 265 265 264 263 261 260 260 259 259 258 258 259 260 259 258 257 257 257 257 257 257 257 256 256 257 257 258 258 259 259 260 260 261 262 263
256 256 257 258 258 258 258 258 259 259 259 259 259 260 260 260 261 261 262 262 263 265 267 269 271 272 273 274 274 275 274 275 275 276 275 275 275 276 277 276 275 272 270 269 268 268 266 265 265 264 264 264 262 260 260 259 259 258 258 257 257 258 259 259 258 257 256 256 256 256 256 255 256 256 256 257 257 258 258 259 260 261 262 262 262
256 257 257 258 258 258 259 259 259 259 260 260 260 261 261 262 263 264 264 264 266 267 268 270 271 272 273 274 276 276 274 274 275 275 275 275 275 275 276 274 270 269 268 267 267 265 264 264 263 263 263 261 260 259 259 258 258 257 257 257 258 258 258 257 257 257 256 255 255 255 255 255 255 256 256 257 259 260 260 261 262 262 262 262 262
257 257 257 257 258 258 258 258 259 260 260 260 261 261 262 262 263 264 266 267 268 268 269 270 271 272 273 275 276 277 275 274 274 274 274 273 271 269 267 267 268 267 266 265 265 264 263 262 261 261 260 259 258 258 257 257 257 256 256 256 256 257 256 255 255 255 254 255 255 254 254 254 255 256 257 260 259 260 261 261 261 261 261 262 262
258 258 258 258 258 258 258 258 259 258 259 259 260 261 261 262 262 263 263 265 267 268 269 270 270 271 272 274 275 276 275 275 270 270 268 267 266 266 265 265 266 266 266 266 265 264 262 261 260 259 258 258 258 257 257 256 256 256 256 255 256 256 256 255 255 254 254 254 254 254 254 255 258 258 258 259 259 259 259 260 260 261 261 262 262
259 259 259 258 258 258 259 259 259 259 259 260 261 261 262 262 263 264 266 267 268 269 269 270 270 271 271 273 274 274 270 268 267 266 265 264 264 264 264 264 264 263 263 263 262 262 261 259 258 257 257 257 257 257 257 256 256 256 255 255 255 254 254 254 254 254 254 254 254 254 254 255 256 257 257 258 258 258 259 260 260 261 261 262 262
260 260 260 260 260 259 259 260 260 260 261 261 261 262 263 263 263 264 266 267 268 269 269 270 270 270 269 267 266 265 265 265 263 263 263 263 262 262 262 262 262 262 261 260 259 259 258 257 256 256 255 255 256 255 255 255 256 256 256 255 254 254 253 253 254 254 254 253 254 255 255 256 256 256 257 257 258 258 259 260 261 261 262 262 262
260 260 260 261 261 262 262 261 261 261 261 261 261 262 263 265 266 267 267 268 268 268 267 265 265 265 264 264 264 263 263 263 263 262 261 261 261 261 261 261 260 260 260 259 258 257 257 256 255 255 254 254 253 254 254 254 254 254 254 255 255 256 255 254 254 253 253 253 254 255 255 255 256 256 257 257 258 259 259 260 261 262 262 262 262
259 260 260 261 261 261 262 263 263 262 262 263 263 264 265 266 266 266 265 265 264 264 264 263 263 262 262 262 262 261 261 261 261 261 260 260 259 259 260 259 259 259 258 257 256 256 255 255 255 254 253 253 252 252 252 252 252 252 252 252 252 253 252 253 252 253 252 253 254 254 255 256 256 257 258 259 259 259 260 261 262 262 262 262 261
259 259 260 260 260 260 261 261 261 262 262 262 263 263 263 263 263 263 263 262 262 261 261 261 261 261 260 260 260 260 260 259 259 259 258 258 258 258 258 257 257 257 255 254 254 254 254 254 253 253 252 252 252 251 251 251 251 251 251 252 251 251 252 252 251 251 251 252 253 254 254 255 256 256 257 257 258 259 260 261 262 262 262 261 262
258 259 259 259 259 260 260 260 260 260 261 261 261 261 261 261 261 261 261 260 260 260 260 259 259 259 259 259 259 259 259 258 257 257 257 257 257 256 255 255 254 253 253 252 252 252 253 253 252 252 252 252 252 251 250 250 250 250 251 251 252 255 254 253 251 250 252 252 253 254 255 255 255 256 257 259 260 261 262 262 261 261 261 261 262
257 258 258 258 258 259 259 260 260 260 260 260 260 260 260 260 260 260 259 259 259 259 259 259 259 259 259 259 258 258 258 256 254 254 256 256 255 254 253 254 253 252 252 251 251 251 251 251 251 250 250 250 250 250 250 250 250 250 250 250 254 257 257 255 254 253 253 253 253 254 255 256 257 258 260 261 262 263 262 261 261 261 261 261 261
257 257 257 257 258 258 258 258 258 258 259 259 259 259 259 258 258 258 258 258 258 258 258 258 258 258 258 258 258 257 257 256 256 256 255 254 254 254 253 252 252 251 250 250 250 250 249 249 249 249 249 249 249 249 249 250 249 249 251 253 255 256 257 257 256 256 256 256 256 257 258 258 259 260 262 263 264 262 261 261 260 260 261 261 261
Wind_Speed
11 9 7 7 7 8 7 7 8 7 8 8 9 9 9 9 9 9 6 10 9 10 12 13 11 11 10 12 12 11 12 11 10 9 10 11 9 9 9 11 12 10 9 10 9 10 10 11 10 9 9 10 8 7 7 7 6 5 5 6 6 5 6 7 6 6 2 2 5 6 5 4 4 6 4 3 3 3 4 4 5 5 6 6 6
13 12 9 7 8 8 8 7 7 7 8 9 10 9 9 9 9 7 10 10 9 11 10 11 10 11 11 12 11 11 11 12 11 10 11 11 11 8 10 12 12 11 10 11 11 9 10 11 10 10 11 10 9 9 8 9 8 8 7 8 7 7 6 7 6 6 7 6 5 4 4 5 4 5 3 3 3 3 4 4 4 5 5 6 6
11 10 11 12 11 8 8 7 7 8 9 9 10 10 10 10 8 10 11 9 9 10 11 10 11 11 12 12 12 11 11 11 11 12 12 13 13 11 10 13 13 13 13 13 12 10 11 11 11 10 8 10 10 9 9 9 8 8 9 7 8 7 7 6 6 6 9 7 6 6 6 5 5 5 3 3 4 4 5 4 4 4 4 5 5
12 11 10 9 9 10 10 8 7 8 8 8 10 10 10 9 9 10 10 9 10 10 11 12 11 12 12 12 11 11 12 12 12 12 14 14 13 13 12 12 12 12 13 12 13 13 14 12 11 12 11 11 11 10 9 9 10 9 9 8 8 8 8 7 6 4 5 7 6 5 4 4 3 3 2 3 4 4 4 5 5 5 5 5 6
13 13 13 13 12 10 10 10 9 8 8 8 9 10 10 10 8 10 10 10 10 10 10 10 12 12 12 12 15 15 13 12 12 12 11 11 14 13 12 12 13 13 12 12 12 14 14 15 13 13 13 12 11 11 11 13 11 10 10 9 9 8 7 8 7 5 5 6 5 3 3 2 2 2 3 3 3 3 4 5 5 6 6 7 6
12 12 13 13 13 15 14 12 12 12 12 10 9 8 8 8 9 9 9 11 11 11 11 10 12 14 15 15 15 15 14 14 14 12 12 12 12 11 10 11 13 12 12 12 13 14 14 14 13 14 15 15 14 12 13 15 12 11 11 10 9 8 9 8 7 6 5 4 5 4 3 3 2 2 2 3 3 3 3 4 5 6 6 7 6
8 9 10 11 12 14 14 14 13 12 11 12 11 10 9 9 8 9 8 11 11 10 11 12 12 13 15 14 13 12 13 13 12 12 12 13 12 12 14 11 12 11 12 12 12 13 12 12 13 15 16 15 14 15 14 13 12 14 12 11 10 10 9 8 8 7 6 5 4 4 3 3 3 2 2 3 4 4 4 4 5 3 4 6 8
11 11 11 9 9 10 11 12 13 13 13 11 10 10 11 11 10 9 8 10 10 11 12 12 12 12 13 14 13 12 12 12 12 12 11 11 14 16 16 15 11 12 12 12 11 12 13 12 12 14 15 15 14 14 15 15 12 12 10 9 11 11 9 9 8 7 6 6 4 5 3 3 3 3 3 3 4 5 6 5 5 4 3 5 7
11 11 11 11 11 11 10 10 10 12 13 13 13 12 10 10 11 10 9 10 9 10 11 12 12 13 13 13 13 13 13 14 13 13 15 16 16 16 17 16 14 13 13 14 13 11 11 11 11 12 16 15 15 15 17 15 13 11 10 11 11 9 8 7 8 7 6 5 5 4 4 4 5 5 6 7 8 6 5 6 5 4 5 6 8
11 12 12 11 10 10 9 9 10 10 11 12 13 13 13 11 9 9 10 11 10 10 10 11 12 13 13 13 13 13 14 13 15 20 16 15 16 14 14 15 16 15 15 14 11 9 11 10 11 13 16 17 18 21 23 23 19 14 15 14 13 10 9 9 9 8 8 8 7 7 6 7 7 8 8 8 7 6 6 6 6 6 6 7 9
10 9 11 11 11 11 11 11 10 11 10 11 11 12 13 12 11 11 9 9 10 11 11 12 12 12 13 14 15 14 14 13 20 20 24 23 16 15 15 14 14 15 15 16 14 10 10 9 8 12 15 16 16 22 23 24 22 20 20 22 20 19 15 10 9 10 10 8 7 8 8 7 9 8 9 8 8 7 6 6 6 5 6 6 6
10 10 10 9 10 11 12 13 13 13 11 11 11 11 12 12 12 11 10 10 9 9 11 12 12 13 12 14 15 15 15 15 19 22 24 25 21 16 14 13 13 15 14 13 9 9 10 10 8 8 10 12 12 16 20 22 23 22 23 23 23 21 19 17 14 10 9 9 9 10 8 9 8 9 9 9 8 7 8 8 8 7 7 7 7
11 11 10 9 10 9 10 11 12 12 12 12 11 10 10 11 12 12 12 10 9 9 11 12 12 12 13 15 15 15 14 13 19 21 23 24 25 20 13 14 13 14 10 11 10 10 10 10 10 9 9 18 14 13 14 16 21 22 22 23 22 22 19 17 17 14 13 9 10 10 11 9 9 9 10 9 7 8 8 8 8 7 7 7 8
12 12 11 9 10 10 10 10 11 11 11 12 12 11 11 10 10 9 10 10 9 10 10 11 12 12 13 14 14 14 15 12 19 21 22 24 25 22 14 13 13 14 15 12 10 11 12 11 11 10 10 14 12 14 14 14 15 15 16 15 14 17 18 18 17 15 13 10 10 10 10 10 9 9 10 9 9 9 8 8 7 7 6 8 9
11 11 11 12 11 11 11 11 11 11 11 11 12 12 12 11 11 9 8 9 10 11 10 11 11 11 12 12 13 14 13 15 19 22 22 24 25 21 14 13 13 13 13 12 11 10 12 10 11 11 13 14 12 16 15 15 14 14 14 13 12 13 13 14 13 12 11 9 10 9 10 10 10 9 8 8 9 8 8 6 4 2 3 5 7
10 10 10 11 11 12 13 13 12 11 12 12 12 12 12 12 12 11 9 8 8 8 10 9 11 12 12 12 12 14 12 14 19 21 23 23 25 16 14 14 14 13 13 14 10 8 10 11 11 12 11 11 19 26 20 14 16 16 16 13 11 10 10 12 14 13 10 9 10 9 9 10 10 8 9 8 8 6 5 4 4 3 1 3 6
10 10 10 11 11 12 13 12 13 13 13 13 14 13 13 13 12 9 9 9 9 9 10 10 10 11 11 11 12 13 12 13 18 21 22 24 20 13 13 12 13 13 13 12 9 12 10 12 11 11 11 12 21 27 26 21 15 16 15 15 13 11 9 11 17 19 18 17 15 16 15 15 15 15 15 15 10 7 3 2 5 1 1 3 5
10 9 10 10 12 12 12 11 12 14 14 14 15 15 14 13 12 9 9 11 10 10 9 9 10 10 11 12 12 13 12 12 18 20 23 24 20 14 12 13 13 13 11 11 9 7 10 21 17 15 11 12 24 27 28 22 16 16 16 15 13 11 9 7 7 11 18 17 16 16 16 14 15 17 16 13 12 7 3 5 3 3 4 4 4
10 10 11 11 12 12 12 11 11 13 14 15 14 16 16 14 13 11 10 9 11 9 8 9 10 9 10 12 12 14 12 11 17 20 23 24 20 13 12 11 12 12 9 6 4 5 8 15 23 18 11 16 27 28 29 21 13 15 15 15 13 14 10 10 11 10 9 9 11 12 12 12 5 6 6 6 4 2 3 3 3 4 5 4 3
9 9 11 12 11 12 10 10 11 12 14 16 16 15 14 13 13 12 11 9 10 9 8 9 11 11 9 10 10 11 12 10 11 20 22 24 26 15 11 12 14 13 10 8 7 6 7 7 17 23 22 23 25 28 29 27 12 8 11 14 14 12 10 11 11 9 8 7 7 7 5 5 5 4 3 3 2 3 3 4 5 5 5 4 3
9 10 11 12 12 11 9 10 13 14 14 14 15 14 14 14 14 14 13 11 10 10 10 10 10 11 9 9 10 10 10 10 11 19 22 24 27 24 12 14 12 11 11 11 9 9 8 9 8 21 24 25 27 28 30 28 19 13 11 11 12 11 13 11 13 15 7 7 8 5 5 4 4 3 2 2 3 3 4 5 6 7 6 5 5
9 9 12 12 11 11 13 13 13 13 14 13 14 16 15 14 15 15 12 12 13 13 11 9 9 10 9 8 9 10 9 12 9 16 22 24 26 31 15 14 12 11 11 11 9 7 9 8 8 19 28 27 28 29 30 28 24 13 12 14 16 20 13 10 10 9 9 8 8 6 5 4 3 3 3 3 5 5 5 6 6 7 6 6 6
9 11 12 12 13 13 13 14 15 13 14 14 14 16 16 15 16 15 14 13 13 14 13 10 10 10 9 7 7 8 8 9 15 12 18 24 26 28 23 14 19 13 12 13 12 9 8 11 13 24 28 30 29 30 30 30 24 14 22 21 20 22 16 10 9 9 9 8 9 9 7 5 5 5 4 5 5 6 6 6 6 6 6 5 6
9 11 12 13 13 14 14 15 14 13 14 14 15 16 17 16 14 13 13 12 12 12 11 10 9 10 10 10 6 6 6 6 10 17 16 23 25 27 25 21 22 14 12 13 8 9 9 9 13 25 28 29 30 31 29 27 17 24 25 24 24 20 11 10 9 9 8 8 9 9 8 4 4 4 5 5 5 6 6 5 5 5 5 4 5
11 13 14 14 14 13 13 13 14 14 14 13 14 15 16 15 14 13 12 11 11 12 12 10 10 11 10 10 9 7 6 7 6 12 19 20 24 26 28 26 24 23 14 9 9 10 12 20 23 27 28 30 32 30 26 27 25 26 27 26 22 10 11 11 11 10 11 11 11 7 7 5 6 5 5 5 6 5 4 3 2 2 2 3 5
14 16 15 15 15 14 16 16 15 14 15 12 12 13 13 14 13 13 12 11 12 11 12 11 10 11 10 8 9 9 6 5 8 9 11 15 17 24 28 26 26 24 19 13 15 18 21 23 26 27 27 24 20 17 14 15 23 27 27 25 12 11 11 11 11 12 12 11 9 9 5 4 4 5 5 5 4 4 3 2 2 3 3 3 3
15 16 17 16 15 14 15 14 14 13 12 12 11 12 12 12 12 13 12 12 12 11 12 12 11 11 11 11 10 8 6 7 6 7 9 9 10 13 17 18 25 25 16 13 15 14 17 19 16 20 17 24 23 17 15 16 18 18 16 12 9 11 11 11 13 12 9 7 8 5 4 4 4 5 5 5 4 3 3 3 3 3 2 2 4
15 16 17 14 14 13 14 17 17 13 13 12 14 14 12 12 11 13 11 12 11 12 12 12 12 12 11 10 9 8 7 6 7 9 9 11 11 11 12 11 12 13 11 11 12 14 15 18 19 15 14 14 14 11 11 10 9 7 9 10 10 10 12 13 10 7 8 7 5 5 4 5 6 6 4 4 3 3 3 3 2 2 2 3 3
17 17 16 14 14 13 12 12 12 13 13 14 12 12 11 11 13 14 14 12 13 12 12 13 13 12 11 11 10 11 10 11 13 12 12 14 13 11 12 12 11 12 13 17 12 11 11 13 12 13 12 12 10 9 8 9 8 9 11 10 10 10 10 10 11 10 9 8 7 6 6 5 4 3 4 3 3 2 2 2 3 3 3 3 4
16 17 14 12 13 11 10 12 11 13 13 14 14 15 21 26 20 16 16 21 27 28 23 17 15 11 11 12 11 13 13 12 11 17 20 20 22 24 20 18 17 13 18 27 17 13 14 14 14 14 13 10 11 11 10 10 10 9 8 8 9 10 9 8 8 8 7 6 6 7 6 5 5 5 5 3 2 2 2 3 3 3 3 4 5
15 16 14 12 13 14 12 13 13 13 13 13 14 15 16 16 23 28 27 27 27 29 30 32 33 30 19 13 13 21 21 15 14 18 21 24 25 25 26 24 23 24 27 20 15 14 14 14 14 14 14 13 13 13 12 12 11 11 10 10 9 10 9 8 8 7 7 7 6 5 5 6 5 5 4 3 2 2 2 3 3 3 4 4 5
15 14 13 12 14 15 13 15 16 15 14 13 15 12 10 12 14 18 24 27 28 28 29 31 31 30 30 27 18 10 17 23 20 19 22 25 25 25 26 28 27 27 31 28 15 13 13 13 13 13 13 13 13 12 13 13 11 11 11 10 10 8 10 9 8 8 8 6 6 6 6 6 5 5 4 3 3 3 3 2 3 3 4 5 6
15 15 13 14 14 17 16 15 16 15 15 12 9 11 13 14 16 20 20 20 28 31 29 29 28 28 29 29 29 24 16 15 23 22 23 25 26 26 26 29 29 30 33 20 15 15 13 13 13 12 13 14 14 14 13 13 12 11 10 10 11 8 6 7 10 7 8 7 6 6 7 7 6 5 5 5 4 3 3 3 3 4 4 5 6
17 15 14 15 16 16 15 15 15 14 11 13 15 16 16 15 16 16 18 19 16 17 23 26 26 26 26 27 27 26 27 25 23 24 24 24 26 26 25 21 27 31 28 17 15 14 13 12 12 13 13 12 12 12 13 13 12 12 11 10 10 7 8 8 7 7 7 8 8 8 7 7 7 6 5 5 4 3 3 4 4 4 5 5 6
15 17 27 25 15 15 12 13 12 15 14 14 14 16 16 17 16 17 17 17 17 16 11 11 17 23 19 18 22 26 25 26 24 23 25 25 25 25 25 16 16 18 20 15 14 14 14 14 13 13 13 13 12 12 12 12 12 12 13 13 10 8 9 9 8 8 9 8 8 8 8 8 7 5 5 6 5 5 4 4 4 5 5 5 6
13 13 12 16 13 13 11 13 11 13 15 16 15 16 16 15 16 15 15 17 17 14 11 9 7 10 21 23 24 25 25 25 23 23 23 24 24 25 15 13 14 14 15 12 13 13 12 12 12 12 12 11 11 11 11 12 11 12 12 13 11 9 8 8 9 9 9 7 8 8 7 6 5 7 6 5 5 5 5 5 5 4 5 6 6
13 11 12 11 13 11 12 11 11 14 16 17 15 15 15 15 15 15 15 16 15 13 12 10 6 6 9 9 14 20 24 23 23 23 23 23 26 19 12 13 12 12 12 11 11 10 11 11 11 12 12 11 10 10 10 12 12 11 10 12 9 9 7 7 7 7 9 9 8 8 8 7 7 7 6 5 4 5 5 5 5 5 6 7 8
14 12 12 11 11 11 12 12 13 19 17 15 15 15 15 15 16 15 15 14 14 14 13 10 9 10 9 8 10 9 11 18 22 20 21 21 17 13 12 12 10 11 11 10 11 11 11 10 9 11 10 9 10 10 12 14 14 13 12 11 9 9 11 10 11 8 7 7 8 8 8 7 5 6 6 5 5 5 5 5 4 5 6 8 7
11 19 26 28 23 16 14 14 15 14 13 13 12 11 11 11 11 12 13 13 14 15 14 10 8 7 7 6 6 8 11 9 10 10 11 10 10 10 11 11 10 10 9 10 11 10 10 9 8 8 9 9 9 11 15 17 14 13 10 10 9 9 9 8 8 8 8 8 7 6 6 5 5 5 6 5 5 5 5 5 5 6 6 6 6
13 12 15 23 16 16 15 15 14 13 13 12 12 12 14 14 13 14 14 14 14 13 12 12 10 8 7 6 7 7 8 9 10 9 9 10 10 10 9 9 8 8 9 10 10 10 10 9 9 9 9 10 12 15 16 16 12 13 11 10 9 9 9 9 10 9 8 7 6 5 5 5 6 7 5 6 5 5 5 5 6 6 6 6 7
11 12 14 16 17 14 14 14 13 12 11 12 12 12 13 14 14 13 12 12 12 12 12 11 9 9 7 9 15 14 8 8 9 8 8 9 9 10 9 5 7 8 8 10 10 10 10 10 9 9 10 12 14 16 17 17 15 11 10 9 8 9 9 8 8 7 7 5 5 5 5 6 6 6 5 6 6 6 6 6 6 5 6 6 6
12 11 11 11 12 11 12 13 12 14 12 13 12 12 12 12 12 11 11 10 10 11 11 10 10 8 10 18 17 20 12 7 7 6 6 5 4 4 5 5 6 9 10 10 11 11 10 11 12 13 15 15 15 14 13 12 11 10 9 8 9 10 9 7 5 6 5 5 5 5 5 5 5 6 5 5 5 5 5 5 5 6 6 6 7
13 12 12 12 11 10 11 12 11 11 11 11 12 12 13 13 12 13 13 14 13 12 10 9 8 7 7 12 14 17 10 7 4 4 5 6 6 7 6 7 7 8 10 10 10 11 13 14 14 14 16 18 19 19 19 15 11 10 8 8 9 10 9 7 6 6 6 5 5 5 5 6 6 5 5 4 3 3 4 5 5 5 6 7 7
12 11 11 11 10 10 10 9 10 11 10 13 13 12 12 11 11 12 11 11 11 10 8 8 7 6 5 7 10 8 1 5 7 6 7 7 8 8 8 8 9 8 8 8 10 12 14 16 15 13 12 12 12 14 14 12 11 11 9 8 7 7 6 5 6 6 6 6 5 5 5 4 5 4 4 5 4 4 4 5 5 6 6 7 8
11 11 11 10 10 10 11 10 9 10 11 10 9 10 11 10 10 11 11 10 7 6 6 5 4 4 1 1 5 7 7 6 7 8 8 8 9 8 8 9 9 10 10 10 14 17 19 19 19 17 15 8 9 10 8 7 7 8 8 8 7 7 7 7 6 5 5 6 6 5 4 5 4 5 5 4 4 4 5 5 6 6 7 7 7
10 10 11 10 10 10 10 9 9 8 8 8 9 9 9 9 10 10 9 7 4 1 1 3 4 4 4 5 5 5 6 7 8 9 8 8 9 9 8 9 9 9 11 12 16 19 18 15 13 12 12 10 10 10 10 10 9 8 7 5 5 4 4 4 4 5 7 6 5 5 5 4 4 5 6 4 4 5 6 7 7 7 8 8 7
10 9 10 10 10 10 10 9 6 6 7 8 8 9 8 6 3 1 3 5 5 4 4 4 5 6 6 6 6 7 7 8 8 9 9 9 8 9 10 10 11 12 12 13 13 12 15 15 11 12 11 9 8 10 9 7 6 5 5 4 4 5 5 4 5 5 6 5 4 4 5 4 4 4 5 5 5 6 7 8 8 8 8 7 7
9 9 9 10 9 9 9 8 9 9 7 6 5 5 5 6 6 5 5 5 6 6 5 6 7 6 7 7 7 7 7 8 8 8 9 8 8 9 10 12 12 13 15 15 13 12 11 10 9 9 9 9 8 7 6 6 5 4 3 3 3 4 5 6 5 5 3 3 4 4 3 4 4 4 5 5 6 7 7 8 7 6 6 5 7
9 9 10 10 9 9 8 8 8 7 7 7 7 7 7 6 7 6 6 6 6 6 6 6 6 6 7 7 7 6 7 7 7 9 9 9 10 9 10 12 14 11 12 12 12 13 12 12 14 10 8 7 7 8 7 5 4 4 4 3 5 9 9 9 6 5 6 4 3 3 3 4 5 6 7 7 8 8 8 6 4 5 5 6 7
9 9 9 10 9 9 9 9 9 8 8 8 8 7 7 7 7 7 7 7 6 6 6 7 7 7 7 7 7 7 7 8 8 8 11 10 12 9 9 11 9 8 9 11 10 9 10 10 12 11 10 9 8 6 4 4 4 4 3 4 7 9 10 10 10 9 7 4 5 5 6 6 7 8 8 8 9 8 6 4 6 5 6 7 7
10 9 9 9 9 9 9 9 8 9 9 9 9 8 8 7 7 7 7 7 7 6 6 6 7 7 7 7 7 8 9 11 9 10 11 10 10 8 7 8 9 10 9 8 7 7 6 6 5 4 5 5 4 4 3 3 3 4 5 7 7 7 7 8 6 9 11 9 6 7 8 9 9 9 9 8 7 5 6 6 6 6 7 7 7
Wind_Direction
355 341 320 303 287 279 272 263 259 250 254 245 243 239 232 225 225 223 206 212 199 201 202 201 197 198 194 199 196 191 190 190 189 189 196 199 197 193 177 188 192 194 177 187 187 186 188 184 180 179 166 172 174 170 174 171 169 171 167 171 176 177 178 186 193 138 142 162 153 168 171 181 212 192 197 211 220 229 235 253 257 259 261 259 259
355 346 340 318 302 291 284 275 262 259 253 252 246 245 240 235 230 216 217 217 200 208 205 203 202 200 199 203 200 197 193 191 186 189 196 196 197 190 188 187 195 191 181 189 187 189 183 183 182 177 178 175 169 175 171 171 175 171 182 181 182 181 186 180 199 161 160 167 183 183 193 196 200 181 198 222 240 238 251 252 252 258 272 283 290
348 344 340 342 340 321 304 293 279 266 258 256 255 251 247 241 228 225 226 220 210 211 207 204 203 202 206 207 202 200 196 195 193 193 196 195 195 192 190 189 191 187 187 192 184 179 183 191 184 171 168 176 178 175 170 176 173 179 180 183 184 183 183 200 172 184 163 172 172 183 195 191 197 177 218 245 250 254 260 253 256 260 260 268 277
350 352 352 349 342 340 334 315 295 277 265 258 258 257 253 249 234 233 233 223 218 215 213 210 206 205 210 209 203 201 198 200 199 202 201 194 195 194 189 191 195 195 190 182 180 183 188 180 184 174 172 174 175 175 179 173 176 180 179 186 185 180 185 185 212 179 171 157 184 187 175 182 197 211 229 259 273 282 284 290 282 275 273 268 264
347 349 350 351 355 1 355 345 334 308 283 272 262 260 257 252 244 238 234 233 226 217 217 212 213 211 211 209 209 208 206 200 200 203 204 206 204 197 190 189 194 197 192 188 183 184 184 191 175 170 174 175 175 179 177 178 178 176 180 181 184 180 174 189 187 179 166 176 156 173 178 213 226 257 264 278 289 285 286 285 291 290 288 284 284
345 348 350 351 352 353 354 355 350 341 327 311 293 277 264 253 247 242 231 236 230 223 220 213 214 216 217 216 213 213 209 207 208 205 202 203 206 208 203 195 194 194 191 192 188 189 189 187 175 176 176 180 181 177 174 179 174 177 177 177 176 170 177 180 180 175 175 171 162 173 188 208 226 229 235 246 263 285 289 285 281 282 292 300 297
343 349 347 349 349 352 350 348 346 343 338 327 319 311 298 282 263 254 237 234 234 228 222 222 221 221 221 218 216 211 209 208 209 207 206 203 203 203 205 203 202 199 199 197 192 191 191 187 183 182 184 184 174 176 174 172 175 180 179 173 168 168 173 175 174 171 175 168 178 186 189 208 219 250 223 223 245 253 274 291 292 280 289 297 304
349 349 349 349 351 350 347 342 343 340 338 334 325 317 309 303 289 273 255 244 239 234 229 224 226 223 225 221 220 214 212 212 209 209 205 202 204 208 207 207 202 207 205 200 195 192 195 193 189 187 186 185 179 175 169 172 169 172 174 165 168 168 171 168 167 170 170 174 178 180 183 188 217 234 254 223 231 238 229 240 260 280 279 271 264
347 347 346 347 346 345 343 342 340 338 337 336 336 329 319 303 296 287 270 260 248 241 237 232 231 229 228 226 223 217 218 216 213 208 207 207 209 209 208 207 206 208 211 210 207 199 195 195 192 189 193 192 186 178 180 171 160 164 169 167 168 168 162 163 165 161 164 164 175 174 183 200 207 201 207 207 209 208 200 207 243 261 269 269 261
343 342 343 340 337 338 338 337 337 334 335 336 332 330 327 322 307 292 286 273 260 251 245 236 233 232 230 227 224 222 223 222 216 210 203 204 205 208 208 210 209 208 208 210 208 202 198 193 196 186 189 186 181 181 182 182 185 176 164 167 169 162 168 164 168 170 164 171 182 175 181 204 200 200 203 209 202 203 207 217 229 234 239 258 265
340 336 336 333 334 336 339 338 337 337 334 330 331 331 329 326 320 309 292 275 266 259 246 244 237 234 231 229 227 227 226 225 216 207 207 204 200 206 207 210 207 208 208 206 207 193 195 192 181 184 186 185 184 180 181 183 181 182 181 176 171 168 166 170 174 168 170 171 170 177 190 197 203 198 203 199 198 201 214 215 220 222 226 232 248
332 333 328 329 330 335 336 336 337 335 336 335 332 328 324 324 320 314 304 293 275 260 252 246 243 236 234 232 231 230 230 228 216 212 209 206 201 203 205 208 206 209 207 204 199 183 184 182 182 180 183 181 172 179 183 183 181 180 180 182 184 186 179 167 162 167 171 164 175 189 181 197 192 193 200 198 198 201 210 217 220 220 226 230 241
330 328 329 328 331 330 332 331 330 329 330 329 328 324 322 319 318 316 309 296 287 272 258 250 245 240 234 236 235 233 234 222 218 215 212 209 205 201 211 207 206 210 204 203 193 186 180 179 180 184 182 180 177 178 174 180 182 180 180 183 188 189 193 190 175 162 166 170 175 179 189 179 187 200 200 195 191 204 208 222 224 224 226 235 250
329 327 328 333 332 332 329 328 324 323 323 324 324 322 319 314 306 302 301 302 288 274 264 255 249 242 237 236 239 239 236 228 219 216 213 210 207 201 211 207 211 211 209 201 191 185 184 180 178 179 176 180 179 177 175 172 174 174 178 181 185 191 191 186 180 171 170 171 168 179 182 180 189 193 196 190 198 208 213 223 227 218 219 244 266
321 322 324 327 331 330 328 323 321 320 322 320 320 317 316 313 310 303 299 293 291 282 272 264 253 246 244 240 242 241 238 225 220 218 214 210 209 204 208 210 213 214 211 207 197 187 183 180 179 177 174 181 179 175 170 172 171 175 177 179 180 184 186 185 181 176 173 178 182 177 182 185 191 192 189 198 207 218 231 225 180 182 250 281 276
313 317 321 325 328 329 326 322 320 322 322 320 316 314 313 311 309 308 302 290 277 272 272 265 261 254 246 244 244 245 241 224 219 217 214 211 207 206 208 210 213 212 211 210 201 185 180 176 179 183 174 182 185 183 179 167 173 175 176 177 176 180 188 189 182 176 173 179 189 189 190 185 181 197 199 200 209 198 122 124 126 128 166 272 278
310 313 316 320 323 323 321 318 319 321 321 318 316 313 311 308 305 303 296 287 283 275 269 262 259 256 251 244 242 245 244 227 221 216 214 210 206 208 208 210 215 213 212 207 188 188 181 181 177 179 179 185 185 186 183 173 173 174 173 175 178 178 182 183 187 184 187 195 192 191 184 190 198 203 204 204 206 143 129 175 237 152 202 257 267
303 308 309 316 318 317 314 316 318 318 317 316 314 311 308 303 296 294 290 290 283 272 266 266 258 252 249 245 238 243 243 229 222 218 213 210 204 205 206 209 213 212 211 204 200 185 182 187 187 188 183 179 186 187 184 176 174 174 172 171 172 178 178 160 165 185 194 200 202 205 204 195 202 208 214 218 213 164 138 211 175 155 218 216 240
305 311 312 314 314 310 308 311 314 312 311 310 311 307 303 299 297 297 285 275 272 272 264 260 260 250 245 244 241 239 244 231 220 219 215 212 208 206 205 206 210 210 199 187 182 177 185 194 192 191 179 179 187 189 187 179 174 175 174 170 176 179 177 160 167 165 181 190 203 203 207 204 159 112 125 147 152 156 179 206 196 196 223 218 214
298 306 309 308 307 303 304 311 309 308 306 305 305 300 297 296 293 291 287 278 276 270 260 256 257 256 245 242 242 238 240 234 223 222 218 214 210 206 204 202 209 203 191 187 177 188 186 182 195 195 189 185 190 192 192 186 175 162 169 180 177 176 158 163 167 162 178 181 187 185 166 119 146 133 134 163 188 199 223 220 208 198 207 214 193
307 308 308 306 302 302 308 308 306 302 299 297 297 295 294 294 295 292 288 284 275 270 262 258 255 258 251 244 244 240 234 232 224 222 223 219 214 208 205 207 206 196 194 190 190 189 184 187 179 193 188 185 190 192 194 190 180 178 181 179 181 164 154 160 166 172 173 183 183 161 154 134 126 147 178 191 217 221 219 214 205 206 199 194 200
305 306 299 297 298 302 303 303 300 297 297 296 297 295 293 293 291 289 285 281 279 274 271 263 259 259 257 244 243 245 234 226 223 222 224 224 221 214 204 207 195 188 192 196 193 186 183 173 166 188 192 188 192 192 192 190 182 178 180 167 156 160 156 150 154 162 174 181 185 175 164 143 147 160 202 213 216 213 209 213 210 212 216 206 203
300 297 295 296 297 296 296 297 296 297 296 296 295 291 291 291 289 286 282 279 274 274 269 264 259 260 259 242 233 238 238 234 224 220 224 227 225 223 208 194 192 190 193 198 195 187 174 184 185 188 192 192 191 193 192 186 180 175 175 170 170 162 151 150 153 158 169 177 183 192 184 171 183 194 205 215 216 205 205 209 207 207 216 221 230
293 293 291 289 291 291 292 292 289 289 291 294 293 288 288 287 283 279 278 275 275 272 270 261 256 258 257 257 240 214 216 228 228 224 223 225 229 228 217 195 191 192 194 205 186 177 176 175 184 190 193 193 193 195 194 186 176 175 176 176 172 164 142 144 151 158 161 169 187 196 198 182 179 200 209 214 213 205 201 201 205 212 220 232 233
295 290 290 289 287 288 288 286 286 286 284 285 286 285 284 285 284 280 274 272 267 265 266 261 253 255 256 255 255 239 220 223 224 228 227 225 229 231 229 211 198 190 191 198 185 192 179 183 185 189 191 192 193 193 194 187 174 175 177 174 171 154 147 153 158 159 177 187 196 192 196 188 196 205 209 204 201 201 195 208 221 249 273 271 262
293 290 290 289 289 291 291 290 286 285 283 280 277 276 276 279 277 277 273 264 263 261 263 261 255 254 253 254 251 243 223 202 224 224 226 229 229 232 233 220 205 196 186 183 182 180 184 186 185 189 191 190 190 192 190 187 178 176 177 175 168 149 149 155 159 170 187 191 187 190 183 170 189 199 199 200 201 204 192 210 231 247 226 240 268
289 290 288 289 290 289 289 289 291 289 283 280 273 271 270 270 271 272 268 264 259 256 256 256 255 252 249 251 250 245 229 221 218 214 216 223 222 227 230 229 208 203 189 180 173 175 182 182 184 190 190 190 189 187 184 184 186 181 178 167 135 151 155 162 169 173 173 166 178 176 153 169 175 179 198 201 206 205 203 212 236 255 251 270 284
288 287 286 287 286 286 284 285 285 283 283 280 281 279 271 266 267 266 267 263 259 257 253 253 251 249 251 249 247 240 230 216 214 213 212 212 217 216 222 227 202 201 187 180 171 169 170 179 182 188 189 190 187 187 185 182 176 145 137 132 142 143 151 149 144 161 168 161 136 133 144 166 183 196 199 208 210 201 207 221 238 269 276 293 291
287 283 282 285 281 283 279 277 278 279 280 278 265 263 267 272 267 267 260 259 257 257 260 256 250 247 244 244 240 241 238 230 225 210 211 208 207 210 213 214 195 195 182 168 160 163 165 171 174 180 188 191 180 173 152 136 128 138 132 133 140 143 143 150 162 167 156 148 160 163 163 164 178 185 198 207 214 204 216 228 262 253 278 263 262
286 282 281 279 281 283 281 278 276 277 277 277 278 275 266 266 264 264 269 264 262 261 257 254 252 249 246 242 229 234 237 234 226 215 214 211 213 214 217 214 200 186 176 174 160 165 175 174 179 180 179 171 169 169 165 151 140 139 146 130 138 143 150 152 152 148 136 142 156 162 168 159 177 184 195 195 211 198 233 222 243 246 257 272 274
281 282 285 281 282 287 284 285 283 279 275 272 275 278 281 272 262 260 261 269 272 269 265 261 258 254 247 251 240 234 240 238 217 212 214 217 214 215 217 218 206 187 174 168 169 175 177 180 182 182 179 170 169 169 161 160 158 150 149 152 153 154 153 155 151 130 135 159 158 156 156 174 178 181 175 190 181 210 202 235 242 254 250 256 267
278 280 281 280 283 282 281 282 284 280 279 273 267 273 293 309 303 290 287 288 282 272 266 262 258 255 253 250 248 238 237 238 229 214 220 217 214 214 217 217 213 186 179 171 172 185 185 182 182 181 174 175 174 165 163 162 157 155 148 152 163 161 161 158 146 145 157 150 148 161 175 182 180 175 175 178 189 214 226 247 246 247 262 259 257
274 277 276 278 279 280 280 280 278 275 272 276 295 309 302 295 293 296 290 269 268 271 267 262 258 256 252 251 250 247 231 222 228 227 221 217 216 215 217 217 214 189 177 177 185 182 185 186 182 179 177 178 172 169 168 163 160 159 160 159 160 160 138 134 140 147 161 158 151 172 176 175 176 174 175 182 183 198 220 238 268 260 258 267 266
272 274 277 277 278 277 277 277 278 281 290 293 290 288 282 277 277 277 280 288 278 258 255 259 259 258 257 254 249 249 247 233 225 222 220 220 217 215 216 219 218 194 184 186 183 185 182 182 181 177 176 175 174 170 169 166 162 159 156 158 156 130 137 139 139 152 155 163 169 175 172 175 174 171 178 178 193 195 212 234 246 250 259 264 269
269 269 272 278 276 275 270 269 269 271 273 273 273 273 272 270 261 257 261 266 269 272 266 246 245 250 255 256 252 247 246 239 225 221 219 218 217 214 214 216 217 201 195 186 185 183 180 181 175 175 173 174 174 172 173 164 162 165 163 159 146 134 145 154 156 159 166 167 168 172 172 173 177 177 173 172 176 193 215 227 241 244 253 263 270
269 271 269 269 269 269 266 266 262 263 268 270 270 268 267 270 273 278 283 285 287 283 274 253 239 230 242 250 250 244 241 243 228 218 219 217 217 213 210 209 214 203 198 190 184 184 176 175 172 173 172 172 168 173 171 165 165 165 164 155 143 143 143 142 160 164 169 166 172 170 168 174 176 177 177 176 190 206 222 222 233 244 249 257 262
277 275 274 270 270 269 268 264 261 266 268 270 269 266 263 260 258 262 258 258 261 268 272 273 261 248 242 246 257 255 247 241 236 221 215 216 217 215 214 215 211 202 195 183 181 170 174 176 173 168 168 166 165 165 165 165 159 151 146 139 121 134 139 145 148 147 162 170 171 173 173 175 173 173 169 176 196 204 219 226 233 242 249 256 268
277 275 273 271 266 264 263 259 263 266 264 258 255 255 257 255 258 257 265 270 270 269 265 260 247 242 237 236 232 236 246 242 239 226 215 215 216 213 214 216 210 199 191 172 172 171 172 167 161 164 159 156 159 161 159 137 141 144 130 131 127 130 146 149 155 156 161 162 170 175 174 170 145 162 173 180 192 200 211 225 229 243 253 259 263
277 278 280 281 281 278 274 275 273 271 268 267 268 272 274 279 280 279 273 275 280 282 284 277 260 251 245 235 231 232 233 230 225 214 203 202 208 212 215 211 205 195 173 165 159 163 158 154 145 140 149 158 154 156 151 140 136 127 128 124 127 147 150 155 156 162 170 174 173 166 159 163 158 171 181 183 197 207 215 225 234 237 246 252 266
278 278 277 278 278 275 274 272 272 270 268 267 262 259 260 258 256 257 258 261 263 262 262 264 262 256 249 234 233 225 218 219 217 207 193 194 201 209 212 211 193 161 155 154 155 150 140 132 137 140 152 156 153 139 129 129 130 132 128 129 139 152 155 161 163 166 173 170 163 164 169 172 175 179 183 197 202 208 216 226 231 238 246 262 271
275 275 275 274 272 275 272 270 267 263 263 261 260 256 251 252 254 252 250 253 255 256 252 253 254 252 246 241 237 229 222 221 217 208 198 195 197 204 209 180 140 139 140 141 139 134 132 133 140 146 146 144 128 129 133 127 124 129 128 134 140 152 158 159 164 163 158 160 168 168 174 180 177 177 186 201 207 211 219 227 237 251 261 264 263
279 277 273 271 270 267 265 266 262 264 263 265 268 271 278 279 283 282 275 261 254 253 254 253 253 252 248 248 246 239 232 216 216 206 189 169 141 104 88 108 126 130 131 129 129 128 128 131 133 129 127 126 125 131 125 125 127 129 131 139 147 151 155 163 162 161 161 167 170 178 176 179 181 194 204 199 204 214 228 242 250 253 257 261 262
282 276 275 269 265 258 255 254 255 259 254 256 256 258 258 260 260 260 261 265 267 259 251 249 248 247 242 245 246 243 236 217 166 127 103 104 103 102 105 110 117 120 128 133 137 140 141 139 139 132 138 142 149 149 150 142 138 134 136 138 149 158 162 163 160 173 173 172 175 182 176 189 195 196 206 217 224 234 237 244 250 256 258 263 261
287 283 277 269 260 254 248 244 253 246 249 251 252 254 254 257 261 263 261 250 247 248 248 246 247 241 230 235 239 246 119 97 100 100 98 100 101 105 111 112 114 114 118 122 132 133 133 107 99 90 87 98 97 95 103 127 134 137 139 137 132 144 148 153 165 172 174 177 182 179 185 191 201 204 214 222 213 220 237 242 249 255 259 256 256
300 295 292 285 279 268 262 250 239 248 251 255 254 254 253 255 256 259 267 272 272 257 244 237 227 215 201 27 60 82 91 97 98 100 102 107 108 108 112 113 113 116 119 120 105 109 105 110 111 117 118 111 108 108 113 117 122 129 137 141 141 154 170 175 171 163 156 160 175 176 186 192 196 204 219 226 220 224 237 245 246 253 255 250 260
309 306 303 303 301 297 291 272 250 242 245 247 251 256 253 250 249 255 259 262 268 257 54 53 55 65 82 92 85 86 97 102 100 100 99 100 104 108 109 112 107 110 118 124 109 106 110 112 120 118 117 116 115 111 109 110 112 112 109 112 124 125 130 131 124 141 161 169 166 174 183 193 208 216 223 228 230 237 238 250 251 249 246 249 258
319 313 321 319 322 326 331 327 297 258 246 249 249 258 262 268 290 344 32 50 60 57 54 58 64 72 71 71 82 86 88 95 102 101 104 105 105 112 113 113 110 111 115 114 96 102 108 105 107 113 116 117 116 116 118 117 117 122 118 121 118 124 120 133 144 144 144 156 165 165 186 195 216 226 233 238 249 246 246 248 246 246 245 261 268
330 331 326 329 333 338 343 345 353 358 2 358 7 10 14 19 21 25 33 40 48 50 58 66 67 69 76 69 78 76 84 89 91 95 97 96 105 112 117 117 115 119 110 94 97 95 97 103 108 109 112 119 120 121 122 127 118 124 126 134 129 129 145 143 128 136 144 155 176 183 191 212 232 237 244 235 237 241 243 248 245 247 258 261 274
340 341 342 343 346 347 347 349 353 355 1 6 13 22 24 27 28 29 27 37 43 47 45 57 60 59 69 73 80 74 79 72 80 94 97 99 105 109 109 110 110 104 101 96 95 90 93 91 91 92 102 109 110 115 124 127 132 125 143 133 170 170 170 171 161 171 172 171 183 200 220 231 234 241 241 242 243 244 246 240 245 261 266 269 271
352 352 350 349 352 352 355 0 3 8 11 17 19 24 21 31 30 32 31 37 39 41 48 57 64 64 72 76 78 75 76 81 83 92 106 107 110 110 104 103 92 88 88 91 90 86 88 86 87 86 85 88 105 110 121 117 130 150 146 168 188 188 179 182 177 176 177 182 187 205 211 226 229 236 241 243 249 245 234 239 262 259 266 270 270
357 357 359 359 357 356 3 5 7 11 10 13 20 24 26 29 31 31 33 32 30 34 41 47 56 60 62 62 77 80 90 100 98 99 103 104 110 105 91 93 91 87 82 78 76 78 81 86 87 87 96 98 103 106 110 131 135 154 177 184 189 193 190 186 191 197 197 198 203 213 219 227 235 239 246 254 261 236 237 251 259 260 272 273 272